SCP
-0 -0 -0 -0 -0 -0 -0 -0 0 0 -0 -0 -0 -0 0 0 -0 -0 -0 -0 0 0 0 0 0 0 0 0 0 0 0 0 0 0 -0 0 0 -0 -0 0 0 0 0
-0 -0 -0 -0 -0 -0 -0 -0 -0 -0 -0 -0 -0 -0 -0 -0 -0 -0 -0 -0 -0 -0 -0 0 0 0 0 0 0 0 0 0 0 0 0 0 0 0 0 0 0 0 0
0 -0 -0 -0 -0 -0 -0 -0 -0 -0 -0 -0 -0 -0 -0 -0 -0 -0 0 0 0 -0 -0 -0 0 0 0 0 0 0 0 0 0 0 0 0 0 0 0 0 0 0 0
0 0 -0 -0 -0 -0 -0 -0 -0 -0 -0 -0 -0 -0 -0 -0 -0 -0 -0 -0 0 0 0 0 0 0 0 0 0 0 0 0 0 0 0 0 0 0 0 0 0 0 0
0 0 -0 -0 -0 -0 -0 -0 -0 -0 -0 -0 -0 -0 -0 -0 -0 -0 -0 -0 -0 0 0 0 0 0 0 0 0 0 0 0 0 0 0 0 0 0 0 0 0 0 0
0 0 0 -0 -0 -0 -0 -0 -0 -0 -0 -0 -0 -0 -0 -0 -0 -0 -0 -0 -0 0 0 0 0 0 0 0 0 0 0 0 0 0 0 0 0 0 0 0 0 0 0
0 0 0 0 0 -0 -0 -0 -0 -0 -0 -0 0 0 0 0 0 0 0 0 0 0 0 0 0 0 0 0 0 0 0 0 0 0 0 0 0 0 0 0 0 0 0
0 0 0 0 0 0 0 0 0 0 0 0 0 0 0 0 0 0 0 0 0 0 0 0 0 0 0 0 0 0 0 0 0 0 0 0 0 0 0 0 0 0 0
0 0 0 0 0 0 0 0 0 0 0 0 0 0 0 0 0 0 0 0 0 0 0 0 0 0 0 0 0 0 0 0 0 0 0 0 0 0 0 0 0 0 0
0 0 0 0 0 0 0 0 0 0 0 0 0 0 0 0 0 0 0 0 0 0 0 0 0 0 0 0 0 0 0 0 0 0 0 0 0 0 0 0 0 0 0
0 0 0 0 0 0 0 0 0 0 0 0 0 0 0 0 0 0 0 0 0 0 0 0 0 0 0 0 0 0 0 0 0 0 0 0 0 0 0 0 0 0 0
0 0 0 0 0 0 0 0 0 0 0 0 0 0 0 0 0 0 0 0 0 0 0 0 0 0 0 0 0 0 0 0 0 0 0 0 0 0 0 0 0 0 0
0 0 0 0 0 0 0 0 0 0 0 0 0 0 0 0 0 0 0 0 0 0 0 0 0 0 0 0 0 0 0 0 0 0 0 0 0 0 0 0 1 0 1
0 0 0 0 0 0 0 0 0 0 0 0 0 0 0 0 0 0 0 0 0 0 0 0 0 0 0 0 0 0 0 0 0 0 0 0 0 0 0 0 1 1 0
0 0 0 0 0 0 0 0 0 0 0 0 0 0 0 0 0 0 0 -0 -0 -0 -0 0 0 0 0 0 0 0 0 0 0 0 0 0 0 0 0 0 0 1 1
0 0 0 0 0 0 0 0 0 0 0 0 0 0 0 0 0 0 -0 -0 -0 -0 -0 -0 -0 0 0 0 0 0 0 0 0 0 0 0 0 0 0 0 0 1 1
0 0 0 0 0 0 0 0 0 0 0 0 0 0 0 0 0 0 0 -0 -0 -0 -0 -0 -0 -0 -0 -0 0 0 0 0 0 0 0 0 0 0 0 0 0 0 1
0 0 0 0 0 0 0 0 0 0 0 0 0 0 0 0 0 0 0 0 0 -0 -0 -0 -0 -0 -0 -0 -0 -0 0 0 0 0 0 0 0 0 0 0 0 0 1
0 0 0 0 0 0 0 0 0 0 0 0 0 0 0 0 0 0 0 0 0 -0 -0 -0 -0 -0 -0 -0 -0 -0 -0 -0 0 0 0 0 0 0 0 0 0 0 0
0 0 0 0 0 0 0 0 0 0 0 0 0 0 0 0 0 0 0 0 0 0 -0 -0 -0 -0 -0 -0 -0 0 0 -0 -0 0 0 0 0 0 0 0 0 0 0
0 0 0 0 0 0 0 0 0 0 0 0 0 0 0 0 0 0 0 0 0 0 0 0 -0 -0 -0 -0 -0 -0 -0 0 -0 -0 -0 -0 0 0 0 0 0 0 0
0 0 0 0 0 0 0 0 0 0 0 0 0 0 0 0 0 0 0 0 0 0 0 0 0 -0 -0 -0 0 0 -0 -0 -0 -0 -0 -0 -0 0 0 0 0 0 0
0 0 0 0 0 0 0 0 0 0 0 0 0 0 0 0 0 0 0 0 0 0 0 0 0 0 0 0 0 0 0 0 0 -0 -0 0 0 0 0 0 0 0 0
0 0 0 0 0 0 0 0 0 0 0 0 0 0 0 0 0 0 0 0 0 0 0 0 0 0 0 0 0 0 0 0 0 -0 -0 -0 -0 0 0 0 0 0 0
0 0 0 0 0 0 0 0 0 0 0 0 0 0 0 0 0 0 0 0 0 0 0 0 0 0 0 0 0 0 0 0 0 0 0 -0 -0 0 0 0 0 0 0
0 0 0 0 0 0 0 0 0 0 0 0 0 0 0 0 0 0 0 0 0 0 0 0 0 0 0 0 0 0 0 0 0 0 0 0 0 0 0 0 0 0 0
Wind_Speed_500mb
7 11 17 13 10 2 4 6 7 6 6 7 6 7 8 9 9 9 11 12 14 19 23 21 22 27 28 25 19 20 21 22 23 25 24 22 23 23 23 20 21 21 22
8 13 12 9 7 2 3 6 6 5 4 5 7 8 9 11 13 15 15 18 19 19 19 21 23 23 27 29 28 24 25 25 27 26 29 29 26 27 27 21 24 24 25
7 14 11 7 6 10 10 9 12 13 12 10 9 12 12 11 13 16 19 22 25 23 24 24 25 25 26 27 29 30 29 30 29 30 32 36 33 28 26 22 23 25 29
7 10 10 11 9 9 15 17 18 18 18 19 20 19 16 17 19 19 19 21 25 26 27 27 28 28 28 28 30 29 31 32 33 31 34 38 36 31 29 29 24 25 31
8 10 12 12 7 9 11 13 18 20 23 24 25 25 26 27 27 28 29 30 28 27 28 29 31 32 32 32 29 33 30 33 34 35 34 37 40 39 34 32 29 28 32
3 3 3 2 4 4 3 6 10 13 16 20 25 30 33 34 36 37 36 36 36 37 34 33 32 34 33 36 34 32 32 33 35 36 39 39 40 44 40 37 35 32 34
4 3 0 3 4 5 5 5 6 8 11 14 17 21 24 31 35 40 43 44 45 45 45 45 41 42 40 41 39 38 37 37 40 41 39 43 43 44 47 44 42 39 38
11 7 6 3 3 4 6 8 10 14 17 21 24 27 29 34 36 36 38 43 48 49 49 47 46 47 47 49 48 44 44 42 43 47 45 42 47 47 52 52 49 45 45
18 13 10 6 5 6 7 9 12 15 18 22 25 26 29 33 39 42 42 44 45 47 48 49 51 52 52 53 55 54 52 51 50 52 52 52 46 49 53 56 55 54 53
23 19 15 10 7 5 6 9 12 13 15 16 19 22 25 29 32 35 38 43 46 48 46 48 54 56 57 58 57 59 62 60 60 58 59 60 53 50 55 59 63 61 60
25 20 16 13 10 6 4 4 6 10 12 15 16 19 21 25 29 32 34 37 40 42 43 46 51 54 59 62 65 66 65 67 68 67 66 64 62 56 55 61 65 66 67
30 26 21 16 12 6 5 6 10 14 16 18 21 24 27 31 35 36 37 39 40 42 45 45 48 53 55 61 66 69 73 74 75 74 75 72 66 64 58 60 66 72 73
34 30 26 20 15 10 6 6 9 11 15 18 22 26 29 33 38 42 44 46 47 48 49 51 51 51 52 60 64 65 72 76 77 79 79 78 75 70 68 59 66 74 79
41 34 28 21 18 14 10 7 8 10 13 17 21 25 29 34 39 45 50 52 53 53 52 54 56 58 59 58 57 62 67 75 81 81 82 83 81 78 75 72 64 74 80
44 39 32 27 23 18 12 8 8 10 14 19 25 31 37 43 46 50 55 58 59 60 61 59 60 62 65 66 66 65 64 67 75 87 87 87 87 86 83 82 78 72 80
49 43 37 31 23 17 13 9 8 11 17 24 30 35 41 45 48 53 58 62 65 65 65 67 67 69 67 69 73 72 73 72 70 76 91 93 91 88 91 87 89 84 80
51 44 36 29 21 17 12 12 13 15 19 23 29 35 41 44 48 54 59 63 67 69 70 71 72 75 80 80 75 75 80 79 79 75 80 95 95 95 95 97 91 94 87
52 44 38 33 26 21 18 17 15 16 20 24 29 35 41 46 50 53 57 61 64 66 71 75 77 80 83 87 92 93 85 83 82 85 82 83 102 101 101 99 100 102 96
57 51 45 39 32 26 24 21 18 18 19 24 30 36 42 47 52 55 58 62 66 69 72 76 79 82 88 90 95 97 98 99 96 87 91 88 89 107 107 94 104 105 104
62 56 52 44 37 33 29 24 21 19 19 24 31 37 41 45 49 54 60 63 67 70 73 75 79 81 85 90 95 100 103 105 103 103 100 90 91 94 113 112 99 109 107
68 65 57 49 40 35 30 26 22 19 20 26 32 36 40 44 49 57 63 66 67 71 74 77 82 87 89 87 95 102 107 112 103 92 96 96 88 90 100 115 114 100 111
80 71 63 52 45 37 32 30 26 24 25 28 33 37 41 45 52 60 65 67 68 73 74 77 79 86 90 88 76 80 67 95 74 42 49 64 67 67 86 102 118 115 119
85 77 66 56 46 41 37 33 30 28 28 32 35 38 42 48 53 59 60 63 67 72 77 78 80 80 88 88 70 52 35 41 78 89 64 67 76 65 65 75 86 121 110
93 78 68 59 52 46 41 36 33 32 33 38 42 45 48 50 52 58 63 66 68 70 73 75 81 85 86 94 79 66 61 73 51 83 69 61 59 89 81 79 76 90 115
93 84 73 64 57 50 44 39 35 34 37 41 48 53 52 53 58 62 66 68 69 71 73 75 80 85 88 93 88 72 67 78 89 86 104 81 75 89 105 101 91 82 84
94 86 78 69 60 54 48 40 37 36 40 46 52 56 58 62 65 64 66 69 70 72 74 79 83 88 91 95 88 90 90 72 78 69 83 85 85 87 90 101 106 107 90
Wind_Direction_500mb
310 350 349 339 33 355 243 239 232 231 211 211 236 260 276 281 279 273 281 283 291 303 310 313 313 313 304 294 286 287 284 268 266 264 264 261 262 263 267 264 261 250 236
322 329 327 326 301 300 225 195 182 201 237 276 289 288 291 282 283 285 287 288 292 297 298 302 308 311 310 303 293 282 276 270 263 263 262 263 260 261 269 260 258 248 236
317 319 324 324 296 257 245 225 213 206 212 219 221 224 226 252 268 285 290 287 287 289 291 291 298 301 307 306 296 290 280 273 263 259 261 256 254 258 264 259 256 243 238
275 296 326 326 296 264 258 253 247 246 245 245 252 257 267 264 258 255 262 270 282 288 287 287 288 291 296 298 299 290 286 277 272 261 257 259 259 254 259 260 250 242 235
263 302 303 297 298 282 280 266 268 265 266 274 274 276 277 280 284 281 278 277 279 278 282 289 290 286 288 289 290 289 287 285 276 267 259 257 258 255 255 255 251 241 232
250 309 312 342 358 339 313 296 297 296 295 292 288 286 286 284 281 282 285 286 282 279 275 274 276 280 280 280 280 280 277 277 283 274 258 255 255 256 253 249 249 243 232
164 171 292 53 31 24 4 0 348 332 327 318 310 305 300 294 292 287 284 282 280 280 279 280 277 275 272 272 273 274 274 276 273 273 269 254 251 254 253 249 239 238 237
217 225 236 244 285 297 309 321 328 330 328 326 321 316 312 307 302 300 295 287 283 279 278 277 277 276 272 272 271 266 266 268 272 270 267 263 251 248 253 248 242 237 236
214 221 226 232 254 286 305 312 317 318 317 312 312 310 307 302 300 299 299 298 296 292 286 280 276 273 274 274 274 272 265 263 264 265 267 266 257 250 250 248 245 237 236
215 217 215 220 239 267 302 312 319 326 331 337 334 331 329 324 317 310 304 297 293 293 292 283 279 276 273 271 270 271 271 266 263 263 263 265 263 254 249 249 246 240 236
217 220 221 217 220 230 269 316 346 351 357 357 354 353 348 340 333 327 321 314 309 301 296 288 287 281 277 273 270 270 269 270 266 262 261 261 263 261 250 249 247 244 237
213 215 217 225 234 240 273 337 350 355 356 358 357 356 355 352 346 343 335 329 325 319 314 308 298 290 283 278 275 271 269 267 265 264 261 261 259 263 259 248 247 245 241
216 217 221 222 225 234 260 310 334 347 352 353 353 351 349 347 345 342 339 336 333 329 326 320 312 307 301 291 284 280 274 270 267 263 261 259 259 258 262 254 247 246 244
216 218 222 225 235 244 257 287 327 340 339 342 343 343 342 342 342 341 339 337 336 333 330 328 323 318 312 306 299 290 281 277 273 271 267 259 256 257 258 259 249 246 246
217 221 225 230 233 237 245 269 298 319 332 340 342 344 342 342 342 340 337 335 334 334 332 331 328 323 318 313 308 301 293 281 273 271 272 270 260 255 256 257 254 246 244
221 223 224 227 227 232 244 260 290 322 339 342 340 338 337 338 338 337 335 332 329 330 331 330 330 326 322 317 311 307 300 293 284 270 263 268 270 264 255 255 254 250 244
225 225 227 230 234 245 264 284 306 321 331 332 333 333 332 334 335 334 331 328 326 326 327 326 326 324 322 320 314 310 305 298 291 282 271 259 262 266 264 254 255 250 246
225 227 230 233 236 246 259 271 287 305 320 325 330 330 331 331 330 328 325 321 321 321 323 325 325 323 321 320 318 314 307 300 295 289 280 269 256 256 262 262 252 251 245
227 229 231 233 236 241 246 256 273 290 308 323 328 329 328 327 325 324 323 321 322 322 324 324 323 322 320 317 314 311 308 306 301 292 284 276 265 253 253 258 258 251 248
224 226 229 232 235 239 245 253 265 284 308 321 326 325 324 320 320 320 319 320 321 321 320 320 318 317 316 315 312 306 304 302 299 296 291 281 272 261 251 252 257 258 248
224 225 227 230 234 240 245 250 260 280 301 313 322 320 318 318 320 320 316 315 315 316 317 319 319 318 317 318 314 311 305 302 298 297 293 295 281 267 257 249 248 253 249
226 224 224 226 232 238 243 250 261 276 295 312 317 316 313 318 319 315 313 314 316 316 316 316 316 314 312 315 312 310 312 304 307 305 293 289 288 274 261 254 250 249 251
223 222 224 227 231 237 243 251 262 277 293 305 309 312 315 316 313 309 311 313 315 315 315 315 313 312 310 308 304 287 294 285 305 290 280 270 272 266 260 260 259 250 247
223 220 224 226 231 236 243 252 266 281 295 306 309 314 314 313 313 313 314 314 313 311 310 311 310 309 307 304 301 292 279 277 288 297 287 282 276 259 255 249 242 246 247
224 221 222 226 230 236 243 254 267 281 296 305 310 310 312 315 316 314 314 312 310 308 308 308 305 301 302 301 298 293 281 279 274 267 281 282 274 272 262 257 250 236 239
223 221 222 224 230 237 244 256 270 284 296 305 307 312 316 318 315 315 312 311 309 307 308 305 303 303 301 299 293 292 287 272 271 266 266 272 269 268 270 267 262 254 241
Wind_Speed_850mb
7 11 17 13 10 2 4 6 7 6 6 7 6 7 8 9 9 9 11 12 14 19 23 21 22 27 28 25 19 20 21 22 23 25 24 22 23 23 23 20 21 21 22
8 13 12 9 7 2 3 6 6 5 4 5 7 8 9 11 13 15 15 18 19 19 19 21 23 23 27 29 28 24 25 25 27 26 29 29 26 27 27 21 24 24 25
7 14 11 7 6 10 10 9 12 13 12 10 9 12 12 11 13 16 19 22 25 23 24 24 25 25 26 27 29 30 29 30 29 30 32 36 33 28 26 22 23 25 29
7 10 10 11 9 9 15 17 18 18 18 19 20 19 16 17 19 19 19 21 25 26 27 27 28 28 28 28 30 29 31 32 33 31 34 38 36 31 29 29 24 25 31
8 10 12 12 7 9 11 13 18 20 23 24 25 25 26 27 27 28 29 30 28 27 28 29 31 32 32 32 29 33 30 33 34 35 34 37 40 39 34 32 29 28 32
3 3 3 2 4 4 3 6 10 13 16 20 25 30 33 34 36 37 36 36 36 37 34 33 32 34 33 36 34 32 32 33 35 36 39 39 40 44 40 37 35 32 34
4 3 0 3 4 5 5 5 6 8 11 14 17 21 24 31 35 40 43 44 45 45 45 45 41 42 40 41 39 38 37 37 40 41 39 43 43 44 47 44 42 39 38
11 7 6 3 3 4 6 8 10 14 17 21 24 27 29 34 36 36 38 43 48 49 49 47 46 47 47 49 48 44 44 42 43 47 45 42 47 47 52 52 49 45 45
18 13 10 6 5 6 7 9 12 15 18 22 25 26 29 33 39 42 42 44 45 47 48 49 51 52 52 53 55 54 52 51 50 52 52 52 46 49 53 56 55 54 53
23 19 15 10 7 5 6 9 12 13 15 16 19 22 25 29 32 35 38 43 46 48 46 48 54 56 57 58 57 59 62 60 60 58 59 60 53 50 55 59 63 61 60
25 20 16 13 10 6 4 4 6 10 12 15 16 19 21 25 29 32 34 37 40 42 43 46 51 54 59 62 65 66 65 67 68 67 66 64 62 56 55 61 65 66 67
30 26 21 16 12 6 5 6 10 14 16 18 21 24 27 31 35 36 37 39 40 42 45 45 48 53 55 61 66 69 73 74 75 74 75 72 66 64 58 60 66 72 73
34 30 26 20 15 10 6 6 9 11 15 18 22 26 29 33 38 42 44 46 47 48 49 51 51 51 52 60 64 65 72 76 77 79 79 78 75 70 68 59 66 74 79
41 34 28 21 18 14 10 7 8 10 13 17 21 25 29 34 39 45 50 52 53 53 52 54 56 58 59 58 57 62 67 75 81 81 82 83 81 78 75 72 64 74 80
44 39 32 27 23 18 12 8 8 10 14 19 25 31 37 43 46 50 55 58 59 60 61 59 60 62 65 66 66 65 64 67 75 87 87 87 87 86 83 82 78 72 80
49 43 37 31 23 17 13 9 8 11 17 24 30 35 41 45 48 53 58 62 65 65 65 67 67 69 67 69 73 72 73 72 70 76 91 93 91 88 91 87 89 84 80
51 44 36 29 21 17 12 12 13 15 19 23 29 35 41 44 48 54 59 63 67 69 70 71 72 75 80 80 75 75 80 79 79 75 80 95 95 95 95 97 91 94 87
52 44 38 33 26 21 18 17 15 16 20 24 29 35 41 46 50 53 57 61 64 66 71 75 77 80 83 87 92 93 85 83 82 85 82 83 102 101 101 99 100 102 96
57 51 45 39 32 26 24 21 18 18 19 24 30 36 42 47 52 55 58 62 66 69 72 76 79 82 88 90 95 97 98 99 96 87 91 88 89 107 107 94 104 105 104
62 56 52 44 37 33 29 24 21 19 19 24 31 37 41 45 49 54 60 63 67 70 73 75 79 81 85 90 95 100 103 105 103 103 100 90 91 94 113 112 99 109 107
68 65 57 49 40 35 30 26 22 19 20 26 32 36 40 44 49 57 63 66 67 71 74 77 82 87 89 87 95 102 107 112 103 92 96 96 88 90 100 115 114 100 111
80 71 63 52 45 37 32 30 26 24 25 28 33 37 41 45 52 60 65 67 68 73 74 77 79 86 90 88 76 80 67 95 74 42 49 64 67 67 86 102 118 115 119
85 77 66 56 46 41 37 33 30 28 28 32 35 38 42 48 53 59 60 63 67 72 77 78 80 80 88 88 70 52 35 41 78 89 64 67 76 65 65 75 86 121 110
93 78 68 59 52 46 41 36 33 32 33 38 42 45 48 50 52 58 63 66 68 70 73 75 81 85 86 94 79 66 61 73 51 83 69 61 59 89 81 79 76 90 115
93 84 73 64 57 50 44 39 35 34 37 41 48 53 52 53 58 62 66 68 69 71 73 75 80 85 88 93 88 72 67 78 89 86 104 81 75 89 105 101 91 82 84
94 86 78 69 60 54 48 40 37 36 40 46 52 56 58 62 65 64 66 69 70 72 74 79 83 88 91 95 88 90 90 72 78 69 83 85 85 87 90 101 106 107 90
Wind_Direction_850mb
310 350 349 339 33 355 243 239 232 231 211 211 236 260 276 281 279 273 281 283 291 303 310 313 313 313 304 294 286 287 284 268 266 264 264 261 262 263 267 264 261 250 236
322 329 327 326 301 300 225 195 182 201 237 276 289 288 291 282 283 285 287 288 292 297 298 302 308 311 310 303 293 282 276 270 263 263 262 263 260 261 269 260 258 248 236
317 319 324 324 296 257 245 225 213 206 212 219 221 224 226 252 268 285 290 287 287 289 291 291 298 301 307 306 296 290 280 273 263 259 261 256 254 258 264 259 256 243 238
275 296 326 326 296 264 258 253 247 246 245 245 252 257 267 264 258 255 262 270 282 288 287 287 288 291 296 298 299 290 286 277 272 261 257 259 259 254 259 260 250 242 235
263 302 303 297 298 282 280 266 268 265 266 274 274 276 277 280 284 281 278 277 279 278 282 289 290 286 288 289 290 289 287 285 276 267 259 257 258 255 255 255 251 241 232
250 309 312 342 358 339 313 296 297 296 295 292 288 286 286 284 281 282 285 286 282 279 275 274 276 280 280 280 280 280 277 277 283 274 258 255 255 256 253 249 249 243 232
164 171 292 53 31 24 4 0 348 332 327 318 310 305 300 294 292 287 284 282 280 280 279 280 277 275 272 272 273 274 274 276 273 273 269 254 251 254 253 249 239 238 237
217 225 236 244 285 297 309 321 328 330 328 326 321 316 312 307 302 300 295 287 283 279 278 277 277 276 272 272 271 266 266 268 272 270 267 263 251 248 253 248 242 237 236
214 221 226 232 254 286 305 312 317 318 317 312 312 310 307 302 300 299 299 298 296 292 286 280 276 273 274 274 274 272 265 263 264 265 267 266 257 250 250 248 245 237 236
215 217 215 220 239 267 302 312 319 326 331 337 334 331 329 324 317 310 304 297 293 293 292 283 279 276 273 271 270 271 271 266 263 263 263 265 263 254 249 249 246 240 236
217 220 221 217 220 230 269 316 346 351 357 357 354 353 348 340 333 327 321 314 309 301 296 288 287 281 277 273 270 270 269 270 266 262 261 261 263 261 250 249 247 244 237
213 215 217 225 234 240 273 337 350 355 356 358 357 356 355 352 346 343 335 329 325 319 314 308 298 290 283 278 275 271 269 267 265 264 261 261 259 263 259 248 247 245 241
216 217 221 222 225 234 260 310 334 347 352 353 353 351 349 347 345 342 339 336 333 329 326 320 312 307 301 291 284 280 274 270 267 263 261 259 259 258 262 254 247 246 244
216 218 222 225 235 244 257 287 327 340 339 342 343 343 342 342 342 341 339 337 336 333 330 328 323 318 312 306 299 290 281 277 273 271 267 259 256 257 258 259 249 246 246
217 221 225 230 233 237 245 269 298 319 332 340 342 344 342 342 342 340 337 335 334 334 332 331 328 323 318 313 308 301 293 281 273 271 272 270 260 255 256 257 254 246 244
221 223 224 227 227 232 244 260 290 322 339 342 340 338 337 338 338 337 335 332 329 330 331 330 330 326 322 317 311 307 300 293 284 270 263 268 270 264 255 255 254 250 244
225 225 227 230 234 245 264 284 306 321 331 332 333 333 332 334 335 334 331 328 326 326 327 326 326 324 322 320 314 310 305 298 291 282 271 259 262 266 264 254 255 250 246
225 227 230 233 236 246 259 271 287 305 320 325 330 330 331 331 330 328 325 321 321 321 323 325 325 323 321 320 318 314 307 300 295 289 280 269 256 256 262 262 252 251 245
227 229 231 233 236 241 246 256 273 290 308 323 328 329 328 327 325 324 323 321 322 322 324 324 323 322 320 317 314 311 308 306 301 292 284 276 265 253 253 258 258 251 248
224 226 229 232 235 239 245 253 265 284 308 321 326 325 324 320 320 320 319 320 321 321 320 320 318 317 316 315 312 306 304 302 299 296 291 281 272 261 251 252 257 258 248
224 225 227 230 234 240 245 250 260 280 301 313 322 320 318 318 320 320 316 315 315 316 317 319 319 318 317 318 314 311 305 302 298 297 293 295 281 267 257 249 248 253 249
226 224 224 226 232 238 243 250 261 276 295 312 317 316 313 318 319 315 313 314 316 316 316 316 316 314 312 315 312 310 312 304 307 305 293 289 288 274 261 254 250 249 251
223 222 224 227 231 237 243 251 262 277 293 305 309 312 315 316 313 309 311 313 315 315 315 315 313 312 310 308 304 287 294 285 305 290 280 270 272 266 260 260 259 250 247
223 220 224 226 231 236 243 252 266 281 295 306 309 314 314 313 313 313 314 314 313 311 310 311 310 309 307 304 301 292 279 277 288 297 287 282 276 259 255 249 242 246 247
224 221 222 226 230 236 243 254 267 281 296 305 310 310 312 315 316 314 314 312 310 308 308 308 305 301 302 301 298 293 281 279 274 267 281 282 274 272 262 257 250 236 239
223 221 222 224 230 237 244 256 270 284 296 305 307 312 316 318 315 315 312 311 309 307 308 305 303 303 301 299 293 292 287 272 271 266 266 272 269 268 270 267 262 254 241